(145055) = 1999 TP238 = 2003 YO174 = 2005 GQ12

Discovered at Anderson Mesa on 2005-04-01 by LONEOS.

Orbit

Orbit type: Main Belt

Note: WebGL enabled browser required.

epoch2023-09-13.0
epoch JD2460200.5
perihelion date2024-03-06.38912
perihelion JD2460375.88912
argument of perihelion (°)214.36201
ascending node (°)127.94848
inclination (°)4.69166
eccentricity0.1537923
perihelion distance (AU)1.9607974
Tisserand w.r.t. Jupiter3.6
ΔV w.r.t. Earth (km/sec)8.8
semimajor axis (AU)2.3171585
mean anomaly (°)310.99134
mean daily motion (°/day)0.27942820
aphelion distance (AU)2.674
period (years)3.53
P-vector [x]0.95122582
P-vector [y]-0.26148812
P-vector [z]-0.16368692
Q-vector [x]0.30167745
Q-vector [y]0.89939802
Q-vector [z]0.31634463
absolute magnitude16.43
phase slope0.15
uncertainty0
referenceMPEC 2023-N20
observations used803
oppositions16
arc length (days)9209
first opposition used1998
last opposition used2023
residual rms (arc-secs)0.71
perturbers coarse indicatorM-v
perturbers precise indicator003Ek
first observation date used1998-04-19.0
last observation date used2023-07-06.0
computer nameMPCLINUX
JD of orbit computation2456966.711077
perihelion JD uncertainty (days)6.5665E-05
argument of perihelion uncertainty (°)1.0693E-04
ascending node uncertainty (°)1.0571E-04
inclination uncertainty (°)5.8983E-06
eccentricity uncertainty 9.4173E-08
perihelion distance uncertainty (AU)2.2158E-07
Minimum Orbit Intersection Distances (in AU)
for orbit epoch: 2460000.5, reference: E2023-N20
Mercury1.56637
Venus1.2336
Earth0.95306
Mars0.57958
Jupiter2.69616
Saturn6.56338
Uranus15.7703
Neptune27.7005

Observations

814 total observations over interval: 1998 04 19.26273 – 2023 07 06.310281
These data are available for download (format description).

Date (UT) J2000 RA J2000 Dec Magn Location Ref
1998 04 19.26273 13 48 29.65 -03 02 05.3 20.1 V 691 – Steward Observatory, Kitt Peak-Spacewatch MPS 149564
1998 04 19.28344 13 48 28.43 -03 01 58.5 20.0 V 691 – Steward Observatory, Kitt Peak-Spacewatch MPS 149564
1998 04 19.30440 13 48 27.20 -03 01 51.0 20.2 V 691 – Steward Observatory, Kitt Peak-Spacewatch MPS 149564
1999 10 04.30343 01 59 30.43 +03 00 41.9 18.3 R 703 – Catalina Sky Survey MPS 15427
1999 10 04.31553 01 59 29.82 +03 00 37.8 17.9 R 703 – Catalina Sky Survey MPS 15427
1999 10 04.32762 01 59 29.27 +03 00 32.4 18.4 R 703 – Catalina Sky Survey MPS 15427
1999 10 04.33972 01 59 28.67 +03 00 27.3 18.2 R 703 – Catalina Sky Survey MPS 15427
1999 10 09.24995 01 55 33.14 +02 27 43.2 18.8   704 – Lincoln Laboratory ETS, New Mexico MPS 15427
1999 10 09.26542 01 55 32.32 +02 27 37.4 19.2   704 – Lincoln Laboratory ETS, New Mexico MPS 15427
1999 10 09.28098 01 55 31.52 +02 27 31.2 18.8   704 – Lincoln Laboratory ETS, New Mexico MPS 15427
1999 10 09.29643 01 55 30.72 +02 27 25.7 19.1   704 – Lincoln Laboratory ETS, New Mexico MPS 15427
1999 10 09.31187 01 55 29.91 +02 27 18.5 18.9   704 – Lincoln Laboratory ETS, New Mexico MPS 15427
2001 02 17.30642 10 35 16.99 +12 18 10.8 18.7   704 – Lincoln Laboratory ETS, New Mexico MPS 149564
2001 02 17.32056 10 35 16.22 +12 18 16.5 19.9   704 – Lincoln Laboratory ETS, New Mexico MPS 149564
2001 02 17.36292 10 35 13.67 +12 18 35.4 19.8   704 – Lincoln Laboratory ETS, New Mexico MPS 149564
2003 12 19.33407 06 54 40.22 +18 44 37.8 19.2   704 – Lincoln Laboratory ETS, New Mexico MPS 109917
2003 12 19.34901 06 54 39.25 +18 44 39.7 19.5   704 – Lincoln Laboratory ETS, New Mexico MPS 109917
2003 12 19.36565 06 54 38.18 +18 44 43.2 19.2   704 – Lincoln Laboratory ETS, New Mexico MPS 109917
2003 12 19.38574 06 54 36.84 +18 44 45.5 19.4   704 – Lincoln Laboratory ETS, New Mexico MPS 109917
2003 12 19.39996 06 54 35.93 +18 44 48.5 19.7   704 – Lincoln Laboratory ETS, New Mexico MPS 109917
2003 12 28.27651 06 44 47.92 +19 10 11.3 19.6   704 – Lincoln Laboratory ETS, New Mexico MPS 109917
2003 12 28.30518 06 44 45.88 +19 10 16.4 19.4   704 – Lincoln Laboratory ETS, New Mexico MPS 109917
2003 12 28.33295 06 44 43.96 +19 10 21.7 19.7   704 – Lincoln Laboratory ETS, New Mexico MPS 109917
2005 04 01.26469 13 37 16.67 -02 26 10.4 19.5 R 699 – Lowell Observatory-LONEOS MPS 130873
2005 04 01.28902 13 37 15.44 -02 26 01.3   699 – Lowell Observatory-LONEOS MPS 130873
2005 04 01.31335 13 37 14.05 -02 25 52.4   699 – Lowell Observatory-LONEOS MPS 130873
2005 04 01.33766 13 37 12.75 -02 25 42.3   699 – Lowell Observatory-LONEOS MPS 130873
2005 04 04.36393 13 34 33.02 -02 05 31.6 19.1 R 703 – Catalina Sky Survey MPS 130873
2005 04 04.37200 13 34 32.59 -02 05 29.0 19.2 R 703 – Catalina Sky Survey MPS 130873
2005 04 04.38009 13 34 32.08 -02 05 25.4 19.1 R 703 – Catalina Sky Survey MPS 130873
2005 04 04.38814 13 34 31.72 -02 05 22.1 19.6 R 703 – Catalina Sky Survey MPS 130873
2005 05 08.18191 13 05 10.66 +00 49 03.6 20.3 V 691 – Steward Observatory, Kitt Peak-Spacewatch MPS 149564
2005 05 08.19750 13 05 10.02 +00 49 06.3 20.4 V 691 – Steward Observatory, Kitt Peak-Spacewatch MPS 149564
2005 05 08.21307 13 05 09.39 +00 49 08.7 20.4 V 691 – Steward Observatory, Kitt Peak-Spacewatch MPS 149564
2006 07 21.39612 00 58 13.74 +02 09 37.1 19.2   704 – Lincoln Laboratory ETS, New Mexico MPS 174850
2006 07 21.40711 00 58 14.48 +02 09 39.2 19.3   704 – Lincoln Laboratory ETS, New Mexico MPS 174850
2006 07 21.42921 00 58 15.95 +02 09 43.3 19.2   704 – Lincoln Laboratory ETS, New Mexico MPS 174850
2006 08 19.37752 01 21 07.28 +02 24 30.2 18.8 R 699 – Lowell Observatory-LONEOS MPS 176058
2006 08 19.39569 01 21 07.60 +02 24 26.5   699 – Lowell Observatory-LONEOS MPS 176058
2006 08 19.41392 01 21 08.02 +02 24 24.5   699 – Lowell Observatory-LONEOS MPS 176058
2006 08 19.43212 01 21 08.38 +02 24 22.1   699 – Lowell Observatory-LONEOS MPS 176058
2006 09 12.36400 01 20 41.01 +00 30 28.8 19.7   705 – Apache Point MPS 195395
2006 09 12.36484 01 20 40.99 +00 30 28.4 19.0 V 705 – Apache Point MPS 195395
2006 09 16.28819 01 18 49.36 +00 03 07.7 18.9   704 – Lincoln Laboratory ETS, New Mexico MPS 179354
2006 09 16.32171 01 18 48.29 +00 02 53.6 19.3   704 – Lincoln Laboratory ETS, New Mexico MPS 179354
2006 09 16.33287 01 18 47.86 +00 02 49.5 18.9   704 – Lincoln Laboratory ETS, New Mexico MPS 179354
2006 09 16.37286 01 18 46.41 +00 02 32.6 19.7   705 – Apache Point MPS 195395
2006 09 16.37369 01 18 46.39 +00 02 32.2 19.0 V 705 – Apache Point MPS 195395
2006 09 18.30605 01 17 41.42 -00 11 28.0 18.3 V 703 – Catalina Sky Survey MPS 179354
2006 09 18.31248 01 17 41.17 -00 11 30.8 18.5 V 703 – Catalina Sky Survey MPS 179354
2006 09 18.31892 01 17 40.92 -00 11 33.2 18.4 V 703 – Catalina Sky Survey MPS 179354
2006 09 18.32538 01 17 40.70 -00 11 36.5 18.4 V 703 – Catalina Sky Survey MPS 179354
2006 09 19.23855 01 17 07.92 -00 18 21.4 18.4   704 – Lincoln Laboratory ETS, New Mexico MPS 179354
2006 09 19.25043 01 17 07.38 -00 18 26.2 18.4   704 – Lincoln Laboratory ETS, New Mexico MPS 179354
2006 09 19.26228 01 17 06.86 -00 18 30.3 18.7   704 – Lincoln Laboratory ETS, New Mexico MPS 179354
2006 09 19.28598 01 17 05.96 -00 18 41.1 18.3   704 – Lincoln Laboratory ETS, New Mexico MPS 179354
2006 09 20.39725 01 16 23.79 -00 26 56.9 18.1 R 644 – Palomar Mountain/NEAT MPS 181081
2006 09 20.39846 01 16 23.74 -00 26 57.4 18.1 R 644 – Palomar Mountain/NEAT MPS 181081
2006 09 20.42058 01 16 22.79 -00 27 07.4 18.3 R 644 – Palomar Mountain/NEAT MPS 181081
2006 09 20.42302 01 16 22.71 -00 27 08.4 18.3 R 644 – Palomar Mountain/NEAT MPS 181081
2006 09 20.44945 01 16 21.62 -00 27 20.3 18.2 R 644 – Palomar Mountain/NEAT MPS 181081
2006 09 20.45292 01 16 21.48 -00 27 21.9 18.2 R 644 – Palomar Mountain/NEAT MPS 181081
2006 09 21.37827 01 15 45.23 -00 34 17.0 17.9 R 699 – Lowell Observatory-LONEOS MPS 179354
2006 09 21.40021 01 15 44.31 -00 34 27.6   699 – Lowell Observatory-LONEOS MPS 179354
2006 09 21.42216 01 15 43.32 -00 34 36.5   699 – Lowell Observatory-LONEOS MPS 179354
2006 09 21.44413 01 15 42.43 -00 34 46.3   699 – Lowell Observatory-LONEOS MPS 179354
2006 09 22.27018 01 15 09.27 -00 40 59.1 18.7   704 – Lincoln Laboratory ETS, New Mexico MPS 181081
2006 09 22.28132 01 15 08.81 -00 41 04.5 19.0   704 – Lincoln Laboratory ETS, New Mexico MPS 181081
2006 09 22.29246 01 15 08.27 -00 41 11.0 19.2   704 – Lincoln Laboratory ETS, New Mexico MPS 181081
2006 09 22.30363 01 15 07.76 -00 41 13.9 19.1   704 – Lincoln Laboratory ETS, New Mexico MPS 181081
2006 09 22.31479 01 15 07.30 -00 41 18.8 18.8   704 – Lincoln Laboratory ETS, New Mexico MPS 181081
2006 09 25.35586 01 12 55.74 -01 04 17.6 18.1 R 699 – Lowell Observatory-LONEOS MPS 181081
2006 09 25.37781 01 12 54.65 -01 04 27.6   699 – Lowell Observatory-LONEOS MPS 181081
2006 09 25.39974 01 12 53.60 -01 04 37.7   699 – Lowell Observatory-LONEOS MPS 181081
2006 09 25.42168 01 12 52.44 -01 04 44.6   699 – Lowell Observatory-LONEOS MPS 181081
2006 09 26.22876 01 12 16.25 -01 10 53.1 18.4   704 – Lincoln Laboratory ETS, New Mexico MPS 181081
2006 09 26.24063 01 12 15.69 -01 10 58.3 18.6   704 – Lincoln Laboratory ETS, New Mexico MPS 181081
2006 09 26.25260 01 12 15.09 -01 11 04.6 18.9   704 – Lincoln Laboratory ETS, New Mexico MPS 181081
2006 09 26.26447 01 12 14.52 -01 11 10.5 18.7   704 – Lincoln Laboratory ETS, New Mexico MPS 181081
2006 09 26.27635 01 12 13.90 -01 11 15.7 18.5   704 – Lincoln Laboratory ETS, New Mexico MPS 181081
2006 09 26.28894 01 12 13.41 -01 11 20.5 18.3   704 – Lincoln Laboratory ETS, New Mexico MPS 181081
2006 09 26.30108 01 12 12.84 -01 11 26.8 18.7   704 – Lincoln Laboratory ETS, New Mexico MPS 181081
2006 09 26.31347 01 12 12.22 -01 11 31.3 18.7   704 – Lincoln Laboratory ETS, New Mexico MPS 181081
2006 09 29.34979 01 09 47.64 -01 34 18.2 17.9 R 699 – Lowell Observatory-LONEOS MPS 181081
2006 09 29.37171 01 09 46.52 -01 34 28.0   699 – Lowell Observatory-LONEOS MPS 181081
2006 09 29.41555 01 09 44.24 -01 34 46.3   699 – Lowell Observatory-LONEOS MPS 181081
2006 09 30.28381 01 09 01.83 -01 41 12.8 18.0 V 703 – Catalina Sky Survey MPS 182707
